Tracking 35274 objects as of 11-Sep-2026
HD Live streaming from Space Station
objects crossing your sky now

COSMOS 1220 DEB


COSMOS 1220 DEB is no longer on orbit


NORAD ID: 25794
Int'l Code: 1980-089CH
Launch date: November 4, 1980
Source: Commonwealth of Independent States (former USSR) (CIS)
Launch site: TYURATAM MISSILE AND SPACE COMPLEX (TTMTR)
Decay date: 1999-06-28

Note: This is SATELLITE DEBRIS
Your satellite tracking list
Your tracking list is empty




NASA's NSSDC Master Catalog

Two Line Element Set (TLE):
1 25794U 80089CH  99178.58707655  .11017560  70627-5  48052-2 0  9998
2 25794 064.9061 257.6362 0022912 176.3951 205.3950 16.21417387920234
Source of the keplerian elements: AFSPC